Regional Weather Roundup
Issued by NWS

Home | Current Version | Previous Version | Graphics & Text | Print | Product List | Glossary On
Versions: 1 2 3 4 5 6 7 8 9 10 11 12 13 14 15 16 17 18 19 20 21 22 23 24 25 26 27 28 29 30 31 32 33 34 35 36 37 38 39 40 41 42 43 44 45 46 47 48 49 50
000
ASUS43 KLOT 121506
RWRIL

ILLINOIS REGIONAL WEATHER ROUNDUP
NATIONAL WEATHER SERVICE CHICAGO/ROMEOVILLE IL
1000 AM CDT SAT JUL 12 2014

NOTE: "FAIR" INDICATES FEW OR NO CLOUDS BELOW 12,000 FEET WITH NO
SIGNIFICANT WEATHER AND/OR OBSTRUCTIONS TO VISIBILITY.

* THESE STATIONS ARE NOT UNDER NWS QUALITY CONTROL. THEY ALSO MAY NOT
  REPORT WEATHER SUCH AS PRECIPITATION OR FOG.

ILZ001-002-007-009-015-016-024-121600-
NORTHWEST ILLINOIS

CITY           SKY/WX    TMP DP  RH WIND       PRES   REMARKS
MOLINE         CLOUDY    77  71  82 W9        30.02R
STERLING*      CLOUDY    73  70  88 SE6       29.99S
SAVANNA*       CLOUDY    74  70  87 S6        29.98R
$$

ILZ003-004-008-010-011-017-018-121600-
NORTH CENTRAL ILLINOIS

CITY           SKY/WX    TMP DP  RH WIND       PRES   REMARKS
ROCKFORD       LGT RAIN  72  68  87 E9        29.97F
FREEPORT*      CLOUDY    69  67  95 NE5       30.00F FOG
ROCHELLE*      CLOUDY    71  69  93 S3        30.01F
DE KALB*       LGT RAIN  70  68  93 SE5       30.01F
PERU*          DRIZZLE   72  70  93 SE7       30.04S
$$

ILZ005-006-012>014-019>023-121600-
NORTHEAST ILLINOIS

CITY           SKY/WX    TMP DP  RH WIND       PRES   REMARKS
CHICAGO-OHARE  LGT RAIN  71  67  87 S7        30.05R FOG
CHICAGO-MIDWAY TSTM      72  70  93 SW18G24   30.06R VSB 1/2
AURORA         LGT RAIN  71  69  93 SE7       30.03F FOG
LANSING*       RAIN      70  68  93 SW10      30.07R
JOLIET*        RAIN      70  68  94 S3        30.05F
WAUKEGAN       CLOUDY    73  67  81 SW9       30.03S
DUPAGE AIRPORT CLOUDY    72  69  90 SE7       30.02F FOG
KANKAKEE*      TSTM      70  70  98 S13       30.09R
WHEELING       CLOUDY    72  69  90 S7        30.06S
MORRIS*        RAIN      72  72 100 S9        30.06R
ROMEOVILLE*    RAIN      70  70  99 SE3       30.05S
NORTHERLY ISL    N/A     71  68  90 W7          N/A
$$

LMZ740>746-121600-
SOUTHERN LAKE MICHIGAN

STATION/POSITION SKY/WX   TEMP    WIND        PRES    VSBY  WAVE
                          AIR SEA DIR/SP/G                  HT/PER
                          (F)     (DEG/KT/KT) (MB)    (MI)  (FT/S)
SOUTHERN BUOY              63 62  360/  2/  4 1017.4F         1/ 3
WAUKEGAN HARBOR            71     210/  9/ 11 1017.9S
HARRISON CRIB              70     230/ 10/ 14   N/A
BURNHAM HARBOR             70     260/  4/ 15   N/A
CALUMET HARBOR             69     180/  9/ 12 1017.5F
MICHIGAN CITY              71     150/ 12/ 18   N/A
$$

ILZ025>027-034>036-040-047-049-050-058-095>099-121600-
WEST-CENTRAL ILLINOIS

CITY           SKY/WX    TMP DP  RH WIND       PRES   REMARKS
QUINCY         MOSUNNY   83  72  69 SW9       30.06F HX  88
GALESBURG*     CLOUDY    80  71  73 CALM      30.04S HX  83
MACOMB*        PTSUNNY   80  74  82 SW5       30.06F HX  85
JACKSONVILLE*  PTSUNNY   84  76  76 W9        30.08F HX  92
PITTSFIELD*    MOSUNNY   86  72  62 W9        30.08F HX  92
$$

ILZ028>032-037-038-041>044-048-051>054-059>061-121600-
CENTRAL ILLINOIS

CITY           SKY/WX    TMP DP  RH WIND       PRES   REMARKS
PONTIAC        CLOUDY    72  72 100 S12       30.08F
BLOOMINGTON    CLOUDY    69  67  93 SE14      30.12R
DECATUR        CLOUDY    74  70  87 S8        30.10S
PEORIA         CLOUDY    81  69  67 CALM      30.06S HX  84
LACON*         CLOUDY    73  70  89 S6        30.04S
LINCOLN*       CLOUDY    78  72  80 S6        30.05F HX  81
SPRINGFIELD    PTSUNNY   84  75  74 W7        30.08S HX  92
TAYLORVILLE    CLOUDY    77  72  83 S7        30.09S
$$

ILZ033-039-045-046-055>057-062-063-121600-
EAST-CENTRAL ILLINOIS

CITY           SKY/WX    TMP DP  RH WIND       PRES   REMARKS
CHAMPAIGN      TSTM      70  68  93 SE5       30.12S
RANTOUL*       HVY RAIN  71  68  90 S9        30.14R
MATTOON        CLOUDY    72  71  97 S10       30.12F
PARIS*         TSTM      70  69  96 SW7       30.14S
$$

ILZ079-100>102-121600-
SOUTHWEST ILLINOIS

CITY           SKY/WX    TMP DP  RH WIND       PRES   REMARKS
ALTON          PTSUNNY   82  75  78 SW9       30.10F HX  89
CAHOKIA*       PTSUNNY   82  75  79 SW7       30.09F HX  89
SPARTA*        PTSUNNY   81  73  78 SW7       30.13F HX  85
$$

ILZ064>066-069>071-074>076-080>082-084>086-088>090-092>094-121600-
SOUTH-CENTRAL ILLINOIS

CITY           SKY/WX    TMP DP  RH WIND       PRES   REMARKS
CARBONDALE     PTSUNNY   82  73  74 SW9       30.13F HX  87
CAIRO*         MOSUNNY   84  75  74 S7        30.16F HX  91
MARION         PTSUNNY   81  75  83 S9        30.15F HX  86
MT. VERNON     CLOUDY    79  72  78 S7        30.14F HX  82
CENTRALIA*     CLOUDY    81  71  72 SW6       30.12F HX  85
SALEM*         CLOUDY    81  74  80 SW7       30.13S HX  86
METROPOLIS*    PTSUNNY   83  70  65 SW7       30.16F HX  87
$$

ILZ067-068-072-073-078-083-087-091-121600-
SOUTHEAST ILLINOIS

CITY           SKY/WX    TMP DP  RH WIND       PRES   REMARKS
FLORA*         TSTM      73  70  92 E9        30.15R
HARRISBURG*    CLOUDY    76  73  87 S3        30.16F
ROBINSON*      RAIN      72  70  94 CALM      30.18S
CARMI*         CLOUDY    79  73  82 S7        30.14F HX  82
$$

ABBREVIATIONS USED IN REMARKS
   TC - TEMPERATURE IN CELSIUS
  WCI - WIND CHILL INDEX
   HX - HEAT INDEX
  VSB - VISIBILITY
$$




USA.gov is the U.S. government's official web portal to all federal, state and local government web resources and services.